contact:dominique.lefevre@mio.osupytheas.fr, maurice.libes@osupytheas.fr, didier.mallarino@osupytheas.fr
Project:EMSO http://www.emso-fr.org/EMSO-France
Depth: 2436.0 m
Title:EMSO Ligure Ouest : Data MII capteur OXYGEN
DateTime,Latitude,Longitude,Optode-Type,Optode_Serial,Oxygen,Saturation_Oxygen,Temperature
DateTime,Latitude,Longitude,Optode-Type,Optode_Serial,µmol.l-1,%,degC
2017-12-10T00:00:40,42.805,6.029,4330,1995,196.128,59.977,13.287
2017-12-10T00:03:40,42.805,6.029,4330,1995,196.047,59.953,13.287
2017-12-10T00:06:40,42.805,6.029,4330,1995,195.937,59.918,13.286
2017-12-10T00:09:40,42.805,6.029,4330,1995,195.865,59.896,13.286
2017-12-10T00:12:40,42.805,6.029,4330,1995,195.761,59.864,13.286
2017-12-10T00:15:40,42.805,6.029,4330,1995,195.657,59.833,13.287
2017-12-10T00:18:40,42.805,6.029,4330,1995,195.584,59.811,13.287
2017-12-10T00:21:40,42.805,6.029,4330,1995,195.649,59.830,13.286
2017-12-10T00:24:40,42.805,6.029,4330,1995,195.828,59.885,13.287
2017-12-10T00:27:40,42.805,6.029,4330,1995,195.757,59.863,13.287
2017-12-10T00:30:40,42.805,6.029,4330,1995,195.829,59.886,13.287
2017-12-10T00:33:40,42.805,6.029,4330,1995,195.793,59.874,13.286
2017-12-10T00:36:40,42.805,6.029,4330,1995,195.857,59.894,13.286
2017-12-10T00:39:40,42.805,6.029,4330,1995,195.813,59.880,13.286
2017-12-10T00:42:40,42.805,6.029,4330,1995,195.725,59.853,13.286
2017-12-10T00:45:40,42.805,6.029,4330,1995,195.722,59.852,13.286
2017-12-10T00:48:40,42.805,6.029,4330,1995,195.720,59.852,13.287
2017-12-10T00:51:40,42.805,6.029,4330,1995,195.685,59.841,13.286
2017-12-10T00:54:40,42.805,6.029,4330,1995,195.637,59.826,13.286
2017-12-10T00:57:40,42.805,6.029,4330,1995,195.595,59.813,13.286
2017-12-10T01:00:40,42.805,6.029,4330,1995,195.649,59.830,13.286
2017-12-10T01:03:40,42.805,6.029,4330,1995,195.690,59.843,13.287
2017-12-10T01:06:40,42.805,6.029,4330,1995,195.781,59.870,13.286
2017-12-10T01:09:40,42.805,6.029,4330,1995,195.706,59.847,13.286
2017-12-10T01:12:40,42.805,6.029,4330,1995,195.628,59.824,13.287
2017-12-10T01:15:40,42.805,6.029,4330,1995,195.634,59.825,13.286
2017-12-10T01:18:40,42.805,6.029,4330,1995,195.626,59.823,13.286
2017-12-10T01:21:40,42.805,6.029,4330,1995,195.667,59.836,13.287
2017-12-10T01:24:40,42.805,6.029,4330,1995,195.610,59.819,13.287
2017-12-10T01:27:40,42.805,6.029,4330,1995,195.635,59.826,13.287
2017-12-10T01:30:40,42.805,6.029,4330,1995,195.716,59.850,13.286
2017-12-10T01:33:40,42.805,6.029,4330,1995,195.747,59.860,13.286
2017-12-10T01:36:40,42.805,6.029,4330,1995,195.747,59.859,13.286
2017-12-10T01:39:40,42.805,6.029,4330,1995,195.686,59.841,13.286
2017-12-10T01:42:40,42.805,6.029,4330,1995,195.828,59.885,13.286
2017-12-10T01:45:40,42.805,6.029,4330,1995,195.889,59.903,13.286
2017-12-10T01:48:40,42.805,6.029,4330,1995,195.818,59.883,13.287
2017-12-10T01:51:40,42.805,6.029,4330,1995,195.782,59.871,13.286
2017-12-10T01:54:40,42.805,6.029,4330,1995,195.783,59.871,13.286
2017-12-10T01:57:40,42.805,6.029,4330,1995,195.847,59.891,13.287
2017-12-10T02:00:40,42.805,6.029,4330,1995,196.179,59.992,13.286
2017-12-10T02:03:40,42.805,6.029,4330,1995,196.110,59.971,13.286
2017-12-10T02:06:40,42.805,6.029,4330,1995,196.102,59.969,13.287
2017-12-10T02:09:40,42.805,6.029,4330,1995,196.234,60.009,13.286
2017-12-10T02:12:40,42.805,6.029,4330,1995,196.167,59.988,13.286
2017-12-10T02:15:40,42.805,6.029,4330,1995,196.131,59.978,13.287
2017-12-10T02:18:40,42.805,6.029,4330,1995,195.944,59.921,13.287
2017-12-10T02:21:40,42.805,6.029,4330,1995,196.045,59.951,13.286
2017-12-10T02:24:40,42.805,6.029,4330,1995,196.247,60.013,13.287
2017-12-10T02:27:40,42.805,6.029,4330,1995,196.268,60.020,13.286
2017-12-10T02:30:40,42.805,6.029,4330,1995,196.177,59.992,13.287
2017-12-10T02:33:40,42.805,6.029,4330,1995,196.191,59.995,13.286
2017-12-10T02:36:40,42.805,6.029,4330,1995,196.274,60.021,13.286
2017-12-10T02:39:40,42.805,6.029,4330,1995,196.344,60.043,13.286
2017-12-10T02:42:40,42.805,6.029,4330,1995,196.233,60.009,13.287
2017-12-10T02:45:40,42.805,6.029,4330,1995,196.255,60.015,13.286
2017-12-10T02:48:40,42.805,6.029,4330,1995,196.325,60.036,13.286
2017-12-10T02:51:40,42.805,6.029,4330,1995,196.411,60.063,13.286
2017-12-10T02:54:40,42.805,6.029,4330,1995,196.336,60.040,13.286
2017-12-10T02:57:40,42.805,6.029,4330,1995,196.350,60.044,13.286
2017-12-10T03:00:40,42.805,6.029,4330,1995,196.307,60.032,13.287
2017-12-10T03:03:40,42.805,6.029,4330,1995,196.260,60.017,13.287
2017-12-10T03:06:40,42.805,6.029,4330,1995,196.338,60.041,13.286
2017-12-10T03:09:40,42.805,6.029,4330,1995,196.305,60.031,13.287
2017-12-10T03:12:40,42.805,6.029,4330,1995,196.330,60.039,13.287
2017-12-10T03:15:40,42.805,6.029,4330,1995,196.235,60.009,13.286
2017-12-10T03:18:40,42.805,6.029,4330,1995,196.276,60.022,13.286
2017-12-10T03:21:40,42.805,6.029,4330,1995,196.307,60.031,13.286
2017-12-10T03:24:40,42.805,6.029,4330,1995,196.280,60.022,13.286
2017-12-10T03:27:40,42.805,6.029,4330,1995,196.310,60.032,13.286
2017-12-10T03:30:40,42.805,6.029,4330,1995,196.314,60.033,13.286
2017-12-10T03:33:40,42.805,6.029,4330,1995,196.310,60.031,13.286
2017-12-10T03:36:40,42.805,6.029,4330,1995,196.346,60.043,13.286
2017-12-10T03:39:40,42.805,6.029,4330,1995,196.307,60.031,13.286
2017-12-10T03:42:40,42.805,6.029,4330,1995,196.192,59.995,13.286
2017-12-10T03:45:40,42.805,6.029,4330,1995,196.251,60.014,13.286
2017-12-10T03:48:40,42.805,6.029,4330,1995,196.201,59.998,13.286
2017-12-10T03:51:40,42.805,6.029,4330,1995,196.258,60.016,13.286
2017-12-10T03:54:40,42.805,6.029,4330,1995,196.191,59.996,13.286
2017-12-10T03:57:40,42.805,6.029,4330,1995,196.121,59.974,13.286
2017-12-10T04:00:40,42.805,6.029,4330,1995,196.074,59.960,13.286
2017-12-10T04:03:40,42.805,6.029,4330,1995,196.042,59.950,13.286
2017-12-10T04:06:40,42.805,6.029,4330,1995,196.051,59.953,13.286
2017-12-10T04:09:40,42.805,6.029,4330,1995,196.076,59.960,13.286
2017-12-10T04:12:40,42.805,6.029,4330,1995,196.036,59.948,13.286
2017-12-10T04:15:40,42.805,6.029,4330,1995,195.917,59.911,13.286
2017-12-10T04:18:40,42.805,6.029,4330,1995,196.026,59.945,13.286
2017-12-10T04:21:40,42.805,6.029,4330,1995,195.943,59.920,13.287
2017-12-10T04:24:40,42.805,6.029,4330,1995,195.787,59.873,13.287
2017-12-10T04:27:40,42.805,6.029,4330,1995,195.796,59.876,13.287
2017-12-10T04:30:40,42.805,6.029,4330,1995,195.583,59.811,13.287
2017-12-10T04:33:40,42.805,6.029,4330,1995,195.340,59.737,13.287
2017-12-10T04:36:40,42.805,6.029,4330,1995,195.251,59.710,13.287
2017-12-10T04:39:40,42.805,6.029,4330,1995,195.055,59.650,13.288
2017-12-10T04:42:40,42.805,6.029,4330,1995,194.794,59.569,13.287
2017-12-10T04:45:40,42.805,6.029,4330,1995,194.815,59.576,13.287
2017-12-10T04:48:40,42.805,6.029,4330,1995,195.184,59.688,13.286
2017-12-10T04:51:40,42.805,6.029,4330,1995,195.074,59.654,13.286
2017-12-10T04:54:40,42.805,6.029,4330,1995,195.113,59.666,13.286
2017-12-10T04:57:40,42.805,6.029,4330,1995,195.036,59.642,13.286
2017-12-10T05:00:40,42.805,6.029,4330,1995,195.226,59.701,13.286
2017-12-10T05:03:40,42.805,6.029,4330,1995,195.284,59.718,13.286
2017-12-10T05:06:40,42.805,6.029,4330,1995,195.462,59.773,13.286
2017-12-10T05:09:40,42.805,6.029,4330,1995,195.698,59.846,13.287
2017-12-10T05:12:40,42.805,6.029,4330,1995,195.941,59.921,13.288
2017-12-10T05:15:40,42.805,6.029,4330,1995,196.000,59.939,13.288
2017-12-10T05:18:40,42.805,6.029,4330,1995,196.000,59.939,13.287
2017-12-10T05:21:40,42.805,6.029,4330,1995,196.140,59.981,13.287
2017-12-10T05:24:40,42.805,6.029,4330,1995,196.099,59.969,13.287
2017-12-10T05:27:40,42.805,6.029,4330,1995,196.189,59.995,13.287
2017-12-10T05:30:40,42.805,6.029,4330,1995,196.096,59.968,13.287
2017-12-10T05:33:40,42.805,6.029,4330,1995,195.985,59.933,13.287
2017-12-10T05:36:40,42.805,6.029,4330,1995,195.991,59.937,13.288
2017-12-10T05:39:40,42.805,6.029,4330,1995,196.078,59.962,13.287
2017-12-10T05:42:40,42.805,6.029,4330,1995,196.121,59.975,13.287
2017-12-10T05:45:40,42.805,6.029,4330,1995,196.116,59.974,13.287
2017-12-10T05:48:40,42.805,6.029,4330,1995,195.985,59.934,13.287
2017-12-10T05:51:40,42.805,6.029,4330,1995,195.855,59.895,13.288
2017-12-10T05:54:40,42.805,6.029,4330,1995,195.856,59.896,13.289
2017-12-10T05:57:40,42.805,6.029,4330,1995,195.753,59.863,13.287
2017-12-10T06:00:40,42.805,6.029,4330,1995,195.596,59.817,13.289
2017-12-10T06:03:40,42.805,6.029,4330,1995,195.442,59.768,13.287
2017-12-10T06:06:40,42.805,6.029,4330,1995,195.372,59.747,13.288
2017-12-10T06:09:40,42.805,6.029,4330,1995,195.355,59.743,13.288
2017-12-10T06:12:40,42.805,6.029,4330,1995,195.365,59.745,13.288
2017-12-10T06:15:40,42.805,6.029,4330,1995,195.374,59.748,13.288
2017-12-10T06:18:40,42.805,6.029,4330,1995,195.290,59.722,13.288
2017-12-10T06:21:40,42.805,6.029,4330,1995,195.235,59.705,13.288
2017-12-10T06:24:40,42.805,6.029,4330,1995,195.245,59.708,13.288
2017-12-10T06:27:40,42.805,6.029,4330,1995,195.408,59.758,13.288
2017-12-10T06:30:40,42.805,6.029,4330,1995,195.396,59.755,13.288
2017-12-10T06:33:40,42.805,6.029,4330,1995,195.317,59.729,13.287
2017-12-10T06:36:40,42.805,6.029,4330,1995,195.251,59.710,13.288
2017-12-10T06:39:40,42.805,6.029,4330,1995,195.217,59.699,13.287
2017-12-10T06:42:40,42.805,6.029,4330,1995,195.246,59.707,13.287
2017-12-10T06:45:40,42.805,6.029,4330,1995,195.270,59.715,13.287
2017-12-10T06:48:40,42.805,6.029,4330,1995,195.192,59.691,13.287
2017-12-10T06:51:40,42.805,6.029,4330,1995,195.174,59.685,13.287
2017-12-10T06:54:40,42.805,6.029,4330,1995,195.251,59.709,13.287
2017-12-10T06:57:40,42.805,6.029,4330,1995,195.177,59.688,13.288
2017-12-10T07:00:40,42.805,6.029,4330,1995,195.145,59.677,13.287
2017-12-10T07:03:40,42.805,6.029,4330,1995,195.063,59.654,13.289
2017-12-10T07:06:40,42.805,6.029,4330,1995,195.070,59.656,13.289
2017-12-10T07:09:40,42.805,6.029,4330,1995,195.188,59.691,13.288
2017-12-10T07:12:40,42.805,6.029,4330,1995,195.184,59.689,13.288
2017-12-10T07:15:40,42.805,6.029,4330,1995,195.399,59.754,13.287
2017-12-10T07:18:40,42.805,6.029,4330,1995,195.284,59.727,13.293
2017-12-10T07:21:40,42.805,6.029,4330,1995,195.261,59.712,13.287
2017-12-10T07:24:40,42.805,6.029,4330,1995,195.362,59.743,13.287
2017-12-10T07:27:40,42.805,6.029,4330,1995,195.385,59.750,13.287
2017-12-10T07:30:40,42.805,6.029,4330,1995,195.430,59.767,13.289
2017-12-10T07:33:40,42.805,6.029,4330,1995,195.628,59.825,13.288
2017-12-10T07:36:40,42.805,6.029,4330,1995,195.616,59.821,13.287
2017-12-10T07:39:40,42.805,6.029,4330,1995,195.669,59.838,13.288
2017-12-10T07:42:40,42.805,6.029,4330,1995,195.627,59.825,13.287
2017-12-10T07:45:40,42.805,6.029,4330,1995,195.866,59.899,13.288
2017-12-10T07:48:40,42.805,6.029,4330,1995,195.839,59.890,13.288
2017-12-10T07:51:40,42.805,6.029,4330,1995,195.901,59.909,13.288
2017-12-10T07:54:40,42.805,6.029,4330,1995,195.734,59.860,13.289
2017-12-10T07:57:40,42.805,6.029,4330,1995,195.696,59.847,13.289
2017-12-10T08:00:40,42.805,6.029,4330,1995,195.422,59.763,13.288
2017-12-10T08:03:40,42.805,6.029,4330,1995,195.420,59.762,13.288
2017-12-10T08:06:40,42.805,6.029,4330,1995,195.385,59.752,13.288
2017-12-10T08:09:40,42.805,6.029,4330,1995,195.548,59.800,13.287
2017-12-10T08:12:40,42.805,6.029,4330,1995,195.786,59.874,13.288
2017-12-10T08:15:40,42.805,6.029,4330,1995,195.822,59.884,13.287
2017-12-10T08:18:40,42.805,6.029,4330,1995,195.618,59.823,13.288
2017-12-10T08:21:40,42.805,6.029,4330,1995,195.737,59.858,13.287
2017-12-10T08:24:40,42.805,6.029,4330,1995,195.957,59.925,13.287
2017-12-10T08:27:40,42.805,6.029,4330,1995,195.904,59.909,13.287
2017-12-10T08:30:40,42.805,6.029,4330,1995,196.027,59.946,13.287
2017-12-10T08:33:40,42.805,6.029,4330,1995,195.990,59.935,13.287
2017-12-10T08:36:40,42.805,6.029,4330,1995,195.888,59.904,13.287
2017-12-10T08:39:40,42.805,6.029,4330,1995,195.652,59.832,13.287
2017-12-10T08:42:40,42.805,6.029,4330,1995,195.495,59.784,13.287
2017-12-10T08:45:40,42.805,6.029,4330,1995,195.666,59.837,13.287
2017-12-10T08:48:40,42.805,6.029,4330,1995,195.553,59.801,13.287
2017-12-10T08:51:40,42.805,6.029,4330,1995,195.739,59.858,13.286
2017-12-10T08:54:40,42.805,6.029,4330,1995,195.854,59.893,13.287
2017-12-10T08:57:40,42.805,6.029,4330,1995,195.744,59.859,13.287
2017-12-10T09:00:40,42.805,6.029,4330,1995,195.794,59.875,13.287
2017-12-10T09:03:40,42.805,6.029,4330,1995,195.921,59.913,13.286
2017-12-10T09:06:40,42.805,6.029,4330,1995,195.913,59.911,13.286
2017-12-10T09:09:40,42.805,6.029,4330,1995,195.757,59.864,13.287
2017-12-10T09:12:40,42.805,6.029,4330,1995,195.689,59.843,13.287
2017-12-10T09:15:40,42.805,6.029,4330,1995,195.635,59.826,13.286
2017-12-10T09:18:40,42.805,6.029,4330,1995,195.855,59.893,13.286
2017-12-10T09:21:40,42.805,6.029,4330,1995,195.750,59.861,13.286
2017-12-10T09:24:40,42.805,6.029,4330,1995,195.743,59.859,13.287
2017-12-10T09:27:40,42.805,6.029,4330,1995,195.666,59.836,13.287
2017-12-10T09:30:40,42.805,6.029,4330,1995,195.585,59.811,13.287
2017-12-10T09:33:40,42.805,6.029,4330,1995,195.575,59.807,13.286
2017-12-10T09:36:40,42.805,6.029,4330,1995,195.463,59.774,13.287
2017-12-10T09:39:40,42.805,6.029,4330,1995,195.444,59.769,13.288
2017-12-10T09:42:40,42.805,6.029,4330,1995,195.417,59.760,13.287
2017-12-10T09:45:40,42.805,6.029,4330,1995,195.205,59.696,13.288
2017-12-10T09:48:40,42.805,6.029,4330,1995,195.313,59.728,13.287
2017-12-10T09:51:40,42.805,6.029,4330,1995,195.454,59.772,13.287
2017-12-10T09:54:40,42.805,6.029,4330,1995,195.484,59.780,13.287
2017-12-10T09:57:40,42.805,6.029,4330,1995,195.429,59.763,13.287
2017-12-10T10:00:40,42.805,6.029,4330,1995,195.575,59.808,13.287
2017-12-10T10:03:40,42.805,6.029,4330,1995,195.614,59.820,13.287
2017-12-10T10:06:40,42.805,6.029,4330,1995,195.587,59.811,13.286
2017-12-10T10:09:40,42.805,6.029,4330,1995,195.748,59.860,13.286
2017-12-10T10:12:40,42.805,6.029,4330,1995,195.842,59.889,13.286
2017-12-10T10:15:40,42.805,6.029,4330,1995,196.107,59.970,13.286
2017-12-10T10:18:40,42.805,6.029,4330,1995,196.111,59.971,13.286
2017-12-10T10:21:40,42.805,6.029,4330,1995,196.090,59.964,13.286
2017-12-10T10:24:40,42.805,6.029,4330,1995,196.234,60.008,13.286
2017-12-10T10:27:40,42.805,6.029,4330,1995,196.268,60.019,13.286
2017-12-10T10:30:40,42.805,6.029,4330,1995,196.264,60.018,13.286
2017-12-10T10:33:40,42.805,6.029,4330,1995,196.372,60.051,13.286
2017-12-10T10:36:40,42.805,6.029,4330,1995,196.432,60.070,13.286
2017-12-10T10:39:40,42.805,6.029,4330,1995,196.384,60.055,13.287
2017-12-10T10:42:40,42.805,6.029,4330,1995,196.484,60.085,13.286
2017-12-10T10:45:40,42.805,6.029,4330,1995,196.581,60.114,13.286
2017-12-10T10:48:40,42.805,6.029,4330,1995,196.471,60.081,13.286
2017-12-10T10:51:40,42.805,6.029,4330,1995,196.433,60.069,13.286
2017-12-10T10:54:40,42.805,6.029,4330,1995,196.379,60.052,13.286
2017-12-10T10:57:40,42.805,6.029,4330,1995,196.175,59.990,13.286
2017-12-10T11:00:40,42.805,6.029,4330,1995,196.184,59.993,13.286
2017-12-10T11:03:40,42.805,6.029,4330,1995,196.172,59.989,13.286
2017-12-10T11:06:40,42.805,6.029,4330,1995,196.382,60.055,13.287
2017-12-10T11:09:40,42.805,6.029,4330,1995,196.455,60.076,13.286
2017-12-10T11:12:40,42.805,6.029,4330,1995,196.472,60.081,13.286
2017-12-10T11:15:40,42.805,6.029,4330,1995,196.468,60.080,13.286
2017-12-10T11:18:40,42.805,6.029,4330,1995,196.451,60.075,13.286
2017-12-10T11:21:40,42.805,6.029,4330,1995,196.481,60.083,13.286
2017-12-10T11:24:40,42.805,6.029,4330,1995,196.596,60.119,13.286
2017-12-10T11:27:40,42.805,6.029,4330,1995,196.586,60.116,13.286
2017-12-10T11:30:40,42.805,6.029,4330,1995,196.734,60.161,13.286
2017-12-10T11:33:39,42.805,6.029,4330,1995,196.669,60.142,13.286
2017-12-10T11:36:39,42.805,6.029,4330,1995,196.705,60.153,13.287
2017-12-10T11:39:39,42.805,6.029,4330,1995,196.862,60.200,13.286
2017-12-10T11:42:39,42.805,6.029,4330,1995,196.862,60.201,13.287
2017-12-10T11:45:39,42.805,6.029,4330,1995,196.909,60.215,13.286
2017-12-10T11:48:39,42.805,6.029,4330,1995,196.917,60.218,13.286
2017-12-10T11:51:39,42.805,6.029,4330,1995,197.039,60.255,13.286
2017-12-10T11:54:39,42.805,6.029,4330,1995,196.963,60.231,13.286
2017-12-10T11:57:39,42.805,6.029,4330,1995,197.064,60.262,13.286
2017-12-10T12:00:39,42.805,6.029,4330,1995,196.949,60.227,13.286
2017-12-10T12:03:39,42.805,6.029,4330,1995,197.036,60.254,13.286
2017-12-10T12:06:39,42.805,6.029,4330,1995,197.084,60.268,13.286
2017-12-10T12:09:39,42.805,6.029,4330,1995,197.040,60.255,13.286
2017-12-10T12:12:39,42.805,6.029,4330,1995,197.103,60.274,13.286
2017-12-10T12:15:39,42.805,6.029,4330,1995,197.192,60.301,13.286
2017-12-10T12:18:39,42.805,6.029,4330,1995,197.227,60.312,13.286
2017-12-10T12:21:39,42.805,6.029,4330,1995,197.158,60.291,13.286
2017-12-10T12:24:39,42.805,6.029,4330,1995,197.268,60.325,13.286
2017-12-10T12:27:39,42.805,6.029,4330,1995,197.346,60.349,13.286
2017-12-10T12:30:39,42.805,6.029,4330,1995,197.354,60.352,13.287
2017-12-10T12:33:39,42.805,6.029,4330,1995,197.260,60.324,13.287
2017-12-10T12:36:39,42.805,6.029,4330,1995,197.327,60.343,13.286
2017-12-10T12:39:39,42.805,6.029,4330,1995,197.329,60.343,13.286
2017-12-10T12:42:39,42.805,6.029,4330,1995,197.282,60.329,13.286
2017-12-10T12:45:39,42.805,6.029,4330,1995,197.344,60.349,13.287
2017-12-10T12:48:39,42.805,6.029,4330,1995,197.303,60.335,13.286
2017-12-10T12:51:39,42.805,6.029,4330,1995,197.346,60.349,13.287
2017-12-10T12:54:39,42.805,6.029,4330,1995,197.285,60.331,13.287
2017-12-10T12:57:39,42.805,6.029,4330,1995,197.244,60.317,13.286
2017-12-10T13:00:39,42.805,6.029,4330,1995,197.269,60.326,13.287
2017-12-10T13:03:39,42.805,6.029,4330,1995,197.132,60.283,13.286
2017-12-10T13:06:39,42.805,6.029,4330,1995,197.222,60.311,13.286
2017-12-10T13:09:39,42.805,6.029,4330,1995,197.139,60.287,13.287
2017-12-10T13:12:39,42.805,6.029,4330,1995,197.161,60.292,13.286
2017-12-10T13:15:39,42.805,6.029,4330,1995,197.179,60.298,13.287
2017-12-10T13:18:39,42.805,6.029,4330,1995,197.082,60.272,13.289
2017-12-10T13:21:39,42.805,6.029,4330,1995,197.099,60.274,13.287
2017-12-10T13:24:39,42.805,6.029,4330,1995,197.042,60.256,13.287
2017-12-10T13:27:39,42.805,6.029,4330,1995,197.042,60.257,13.287
2017-12-10T13:30:39,42.805,6.029,4330,1995,196.966,60.233,13.287
2017-12-10T13:33:39,42.805,6.029,4330,1995,196.959,60.230,13.286
2017-12-10T13:36:39,42.805,6.029,4330,1995,196.940,60.225,13.286
2017-12-10T13:39:39,42.805,6.029,4330,1995,196.945,60.227,13.287
2017-12-10T13:42:39,42.805,6.029,4330,1995,197.007,60.245,13.286
2017-12-10T13:45:39,42.805,6.029,4330,1995,196.962,60.232,13.287
2017-12-10T13:48:39,42.805,6.029,4330,1995,197.004,60.244,13.286
2017-12-10T13:51:39,42.805,6.029,4330,1995,196.981,60.237,13.286
2017-12-10T13:54:39,42.805,6.029,4330,1995,197.002,60.243,13.286
2017-12-10T13:57:39,42.805,6.029,4330,1995,196.951,60.228,13.286
2017-12-10T14:00:39,42.805,6.029,4330,1995,196.888,60.209,13.287
2017-12-10T14:03:39,42.805,6.029,4330,1995,196.769,60.173,13.287
2017-12-10T14:06:39,42.805,6.029,4330,1995,196.746,60.165,13.286
2017-12-10T14:09:39,42.805,6.029,4330,1995,196.789,60.178,13.286
2017-12-10T14:12:39,42.805,6.029,4330,1995,196.808,60.185,13.286
2017-12-10T14:15:39,42.805,6.029,4330,1995,196.713,60.155,13.286
2017-12-10T14:18:39,42.805,6.029,4330,1995,196.741,60.163,13.286
2017-12-10T14:21:39,42.805,6.029,4330,1995,196.786,60.177,13.286
2017-12-10T14:24:39,42.805,6.029,4330,1995,196.765,60.172,13.287
2017-12-10T14:27:39,42.805,6.029,4330,1995,196.755,60.169,13.287
2017-12-10T14:30:39,42.805,6.029,4330,1995,196.784,60.178,13.287
2017-12-10T14:33:39,42.805,6.029,4330,1995,196.730,60.162,13.287
2017-12-10T14:36:39,42.805,6.029,4330,1995,196.628,60.130,13.287
2017-12-10T14:39:39,42.805,6.029,4330,1995,196.735,60.162,13.287
2017-12-10T14:42:39,42.805,6.029,4330,1995,196.791,60.180,13.287
2017-12-10T14:45:39,42.805,6.029,4330,1995,196.774,60.174,13.286
2017-12-10T14:48:39,42.805,6.029,4330,1995,196.647,60.136,13.287
2017-12-10T14:51:39,42.805,6.029,4330,1995,196.683,60.146,13.286
2017-12-10T14:54:39,42.805,6.029,4330,1995,196.740,60.164,13.286
2017-12-10T14:57:39,42.805,6.029,4330,1995,196.811,60.186,13.287
2017-12-10T15:00:39,42.805,6.029,4330,1995,196.694,60.150,13.286
2017-12-10T15:03:39,42.805,6.029,4330,1995,196.500,60.091,13.287
2017-12-10T15:06:39,42.805,6.029,4330,1995,196.479,60.084,13.287
2017-12-10T15:09:39,42.805,6.029,4330,1995,196.565,60.111,13.287
2017-12-10T15:12:39,42.805,6.029,4330,1995,196.480,60.085,13.287
2017-12-10T15:15:39,42.805,6.029,4330,1995,196.540,60.104,13.287
2017-12-10T15:18:39,42.805,6.029,4330,1995,196.595,60.120,13.287
2017-12-10T15:21:39,42.805,6.029,4330,1995,196.609,60.123,13.286
2017-12-10T15:24:39,42.805,6.029,4330,1995,196.646,60.136,13.287
2017-12-10T15:27:39,42.805,6.029,4330,1995,196.604,60.122,13.286
2017-12-10T15:30:39,42.805,6.029,4330,1995,196.576,60.114,13.286
2017-12-10T15:33:39,42.805,6.029,4330,1995,196.638,60.133,13.287
2017-12-10T15:36:39,42.805,6.029,4330,1995,196.590,60.118,13.286
2017-12-10T15:39:39,42.805,6.029,4330,1995,196.572,60.113,13.287
2017-12-10T15:42:39,42.805,6.029,4330,1995,196.626,60.129,13.286
2017-12-10T15:45:39,42.805,6.029,4330,1995,196.531,60.100,13.286
2017-12-10T15:48:39,42.805,6.029,4330,1995,196.506,60.092,13.286
2017-12-10T15:51:39,42.805,6.029,4330,1995,196.539,60.103,13.287
2017-12-10T15:54:39,42.805,6.029,4330,1995,196.540,60.102,13.286
2017-12-10T15:57:39,42.805,6.029,4330,1995,196.614,60.125,13.286
2017-12-10T16:00:39,42.805,6.029,4330,1995,196.476,60.083,13.287
2017-12-10T16:03:39,42.805,6.029,4330,1995,196.581,60.115,13.286
2017-12-10T16:06:39,42.805,6.029,4330,1995,196.597,60.119,13.286
2017-12-10T16:09:39,42.805,6.029,4330,1995,196.706,60.153,13.286
2017-12-10T16:12:39,42.805,6.029,4330,1995,196.527,60.098,13.286
2017-12-10T16:15:39,42.805,6.029,4330,1995,196.606,60.123,13.286
2017-12-10T16:18:39,42.805,6.029,4330,1995,196.628,60.129,13.286
2017-12-10T16:21:39,42.805,6.029,4330,1995,196.675,60.143,13.286
2017-12-10T16:24:39,42.805,6.029,4330,1995,196.742,60.164,13.286
2017-12-10T16:27:39,42.805,6.029,4330,1995,196.602,60.121,13.286
2017-12-10T16:30:39,42.805,6.029,4330,1995,196.588,60.117,13.286
2017-12-10T16:33:39,42.805,6.029,4330,1995,196.618,60.126,13.286
2017-12-10T16:36:39,42.805,6.029,4330,1995,196.673,60.143,13.286
2017-12-10T16:39:39,42.805,6.029,4330,1995,196.831,60.191,13.286
2017-12-10T16:42:39,42.805,6.029,4330,1995,196.768,60.172,13.286
2017-12-10T16:45:39,42.805,6.029,4330,1995,196.787,60.178,13.286
2017-12-10T16:48:39,42.805,6.029,4330,1995,196.752,60.167,13.286
2017-12-10T16:51:39,42.805,6.029,4330,1995,196.772,60.174,13.287
2017-12-10T16:54:39,42.805,6.029,4330,1995,196.703,60.152,13.286
2017-12-10T16:57:39,42.805,6.029,4330,1995,196.757,60.169,13.286
2017-12-10T17:00:39,42.805,6.029,4330,1995,196.791,60.179,13.286
2017-12-10T17:03:39,42.805,6.029,4330,1995,196.780,60.176,13.287
2017-12-10T17:06:39,42.805,6.029,4330,1995,196.729,60.160,13.286
2017-12-10T17:09:39,42.805,6.029,4330,1995,196.734,60.162,13.286
2017-12-10T17:12:39,42.805,6.029,4330,1995,196.756,60.169,13.286
2017-12-10T17:15:39,42.805,6.029,4330,1995,196.658,60.138,13.286
2017-12-10T17:18:39,42.805,6.029,4330,1995,196.699,60.151,13.286
2017-12-10T17:21:39,42.805,6.029,4330,1995,196.720,60.157,13.286
2017-12-10T17:24:39,42.805,6.029,4330,1995,196.609,60.124,13.286
2017-12-10T17:27:39,42.805,6.029,4330,1995,196.638,60.132,13.286
2017-12-10T17:30:39,42.805,6.029,4330,1995,196.620,60.127,13.286
2017-12-10T17:33:39,42.805,6.029,4330,1995,196.609,60.124,13.286
2017-12-10T17:36:39,42.805,6.029,4330,1995,196.714,60.156,13.287
2017-12-10T17:39:39,42.805,6.029,4330,1995,196.606,60.122,13.286
2017-12-10T17:42:39,42.805,6.029,4330,1995,196.645,60.134,13.286
2017-12-10T17:45:39,42.805,6.029,4330,1995,196.614,60.125,13.286
2017-12-10T17:48:39,42.805,6.029,4330,1995,196.709,60.155,13.287
2017-12-10T17:51:39,42.805,6.029,4330,1995,196.552,60.107,13.287
2017-12-10T17:54:39,42.805,6.029,4330,1995,196.650,60.136,13.287
2017-12-10T17:57:39,42.805,6.029,4330,1995,196.699,60.151,13.286
2017-12-10T18:00:39,42.805,6.029,4330,1995,196.721,60.157,13.286
2017-12-10T18:03:39,42.805,6.029,4330,1995,196.575,60.113,13.286
2017-12-10T18:06:39,42.805,6.029,4330,1995,196.556,60.107,13.286